Showing default

DROID.002, 63223

Orbit data source: Space-Track

DROID.002, 63223 is a payload satellite owned by Turion Space (US) in SSO that was launched on Sat, 15 Mar 2025 UTC via an FALCON 9 launch vehicle from the Air Force Western Test Range (AFWTR). Payload-class satellites include a variety of spacecraft equipped with specific instruments for various scientific and technological missions. These include communications satellites like Starlink; space stations such as the ISS; scientific satellites like the Hubble; Earth observation satellites from companies like Planet Labs, Umbra, and HawkEye 360; GPS; miniature CubeSats for education and research; and military/defense satellites.

Loading next visibility...
Identifier
63223, 2025-052P
Orbit
SSO
Last TLE update
17 hours ago
Origin
Manufacturer
Turion Space
Mission
Operational Commercial Technology
Bus & Motor
DROID, Unknown motor
Mass
90 kg wet, 90 kg dry
Launch date (UTC)
2025-03-15 (4 months ago)
Launch vehicle
FALCON 9
Launch site
Air Force Western Test Range (AFWTR)
Object type
Payload
Rocket body
Debris
Shape & HBR
Box + 2 Pan, 1.0 m
Radar Cross Section
0.892 m², Large (>1 m²)

Expand to show TLE details & history

TLE from 17 hours ago
0 DROID.002
1 63223U 25052P   25199.28172117  .00004063  00000-0  19734-3 0  9995
2 63223  97.4295  92.4911 0003445 203.0063 157.1017 15.19012370 19113
Epoch: 2025-07-18T06:45Z
TLE epoch observation values (Epoch: 2025-07-18T06:45:40.709Z)
Latitude
-0.00007°
Longitude
54.73606°
Altitude
514.099 km
Speed
7.605 km/s
True Right ascension
06h 09m 57s
True Declination
0° 00' 00"
Sunlit
Object was in daylight at epoch
Visualization orbit readout
Latitude
-67.39519°
Longitude
73.58438°
Altitude
534.329 km
Speed
7.594 km/s
Apparent Right ascension
02h 42m 18s
Apparent Declination
-64° 01' 26"
Sunlit
Object is in daylight
Visualization observer readout
Local Sidereal Time
12:38:44
Azimuth
206.639° SW
Elevation
-59.896°
Doppler factor
1
Orbital elements
Apogee altitude
508.164 km
Perigee altitude
503.421 km
Semi-major axis
6,883.929 km
Eccentricity
0.00034
Inclination
97.4295°
RAAN
92.4911°
Arg. of periapsis
203.0063°
True anomaly
157.11705°
Mean anomaly
157.1017°
Eccentric anomaly
157.10938°
Mean motion
3.80004 °/min
Orbital period
94.74 mins
BSTAR
0.00019734
Loading maneuver chart data...
Loading SW <> Apogee altitude chart data...
Loading historical data...
Loading historical data...
Loading historical data...
Loading historical data...
Loading historical data...
Loading historical data...
Loading historical data...
|